Regional Weather Roundup
Issued by NWS

Home | Current Version | Previous Version | Text Only | Print | Product List | Glossary Off
Versions: 1 2 3 4 5 6 7 8 9 10 11 12 13 14 15 16 17 18 19 20 21 22 23 24 25 26 27

000
ASUS45 KBOI 241510
RWRID

IDAHO REGIONAL WEATHER ROUNDUP
NATIONAL WEATHER SERVICE BOISE ID
900 AM MDT SUN JUL 24 2016

NOTE: "FAIR" INDICATES FEW OR NO CLOUDS BELOW 12000 FEET
WITH NO SIGNIFICANT WEATHER AND/OR OBSTRUCTIONS TO VISIBILITY

IDZ012-014-241600-
SOUTHWEST IDAHO


CITY           SKY/WX    TMP DP  RH WIND       PRES   REMARKS
BOISE          SUNNY     66  40  38 S3        30.09R
CALDWELL       NOT AVBL
MOUNTAIN HOME  SUNNY     66  40  38 N6        30.10R
$$

IDZ016-017-241600-
SOUTHCENTRAL IDAHO


CITY           SKY/WX    TMP DP  RH WIND       PRES   REMARKS
BURLEY         SUNNY     63  39  41 CALM      30.16R
JEROME         SUNNY     65  33  30 S5        30.16R
TWIN FALLS     SUNNY     71  29  21 SW9       30.16R
$$

IDZ019>023-241600-
SOUTHEAST IDAHO


CITY           SKY/WX    TMP DP  RH WIND       PRES   REMARKS
IDAHO FALLS    SUNNY     56  41  57 NW3       30.21R
POCATELLO      SUNNY     70  28  21 SW7       30.19S
REXBURG        SUNNY     59  39  47 CALM      30.21S
$$

IDZ006-010-011-018-031-032-241600-
CENTRAL IDAHO MOUNTAINS


CITY           SKY/WX    TMP DP  RH WIND       PRES   REMARKS
MCCALL         SUNNY     58  44  60 CALM      30.20S
HAILEY         SUNNY     61  34  36 NW9       30.23R
STANLEY          N/A     50  32  50 NE3       30.31S
SALMON         SUNNY     57  39  51 N3        30.20S
CHALLIS        SUNNY     62  37  39 NE3       30.23S
$$

IDZ002-004-006-007-026-241600-
NORTHERN IDAHO


CITY           SKY/WX    TMP DP  RH WIND       PRES   REMARKS
LEWISTON       SUNNY     64  48  56 N5        30.11S
LOWELL           N/A     57  50  77 CALM      30.16F
COEUR D`ALENE  SUNNY     63  50  63 NE5       30.12F
MULLAN PASS    SUNNY     56  41  57 CALM      30.26R
$$




USA.gov is the U.S. government's official web portal to all federal, state and local government web resources and services.